PROGRESS-MS 11 (44110 NORAD) Tracking and Keplerian Element Data

This shows tracking and keplerian element data for the satellite.

Feedback or suggestion? Click here.




ElementValue
Catalog44110
NamePROGRESS-MS 11
Epoch Orbit16630
Epoch Day110.55921104
Epoch Year2019
RAAN287.6593
Inclination51.6418
Eccentricity0.0001153
Argument of Perigee198.9278
Mean Anonmoly267.3393
Mean Motion15.52572557
Decay Rate1.281E-05
L11 44110U 19019A 19110.55921104 .00001281 00000-0 27960-4 0 9999
L22 44110 51.6418 287.6593 0001153 198.9278 267.3393 15.52572557166304

Live tracking and technical data element details for PROGRESS-MS 11 (NORAD 44110). PROGRESS-MS 11 can be tracked NOW for your location showing map with azimuth and elevation plus other details from your city location.

Track the satellite on the map from your city or location and see movement details for azimuth, elevation, latitude, longitude, range, height, and movement on the map or in text.







IsCatalogInMostPopularTable: catalog: 44110, numindb: 5
Update: records affected: 1



GetName: 44110 PROGRESS-MS 11

Hit Count: updated at: Tue, 23 Apr 2019 02:07:06 GMT